Location: Narrabri
(30.3170°S, 149.7830°E)
Time: 03:03:00
(UTC+11:00)

Tiangong 2 - Visible Passes

Search period start: 15 November 2018 00:00
Search period end: 25 November 2018 00:00
Orbit: 382 x 393 km, 42.8° (Epoch: 14 November)

Date Brightness Start Highest point End Pass type
(mag) Time Alt. Az. Time Alt. Az. Time Alt. Az.
15 Nov 3.7 04:30:09 10° SSW 04:32:42 21° SSE 04:35:15 10° ESE visible
16 Nov 4.1 03:33:05 14° S 03:33:56 15° SSE 03:35:51 10° SE visible
16 Nov 1.4 05:07:56 10° SW 05:11:09 71° SSE 05:14:20 10° ENE visible
17 Nov 2.7 04:10:26 17° SSW 04:12:32 35° SSE 04:15:32 10° E visible
17 Nov 3.1 20:41:55 10° N 20:42:48 14° N 20:42:48 14° N visible
18 Nov 4.4 03:16:00 12° ESE 03:16:00 12° ESE 03:16:24 10° ESE visible
18 Nov 1.3 04:48:23 15° WSW 04:50:46 48° NW 04:53:51 10° NE visible
18 Nov 1.3 21:19:08 10° WNW 21:21:54 64° WNW 21:21:54 64° WNW visible
19 Nov 3.5 03:54:35 17° ENE 03:54:35 17° ENE 03:55:25 10° ENE visible
19 Nov 3.3 05:28:26 10° NW 05:28:40 10° NW 05:28:54 10° NW visible
19 Nov 1.4 20:20:44 10° NW 20:23:46 44° NE 20:26:51 10° ESE visible
19 Nov 3.6 21:58:04 10° WSW 22:00:26 22° SSW 22:00:26 22° SSW visible
20 Nov 2.6 20:58:57 10° W 21:01:58 38° SSW 21:05:00 10° SE visible
20 Nov 4.8 22:38:12 10° SSW 22:38:15 10° SSW 22:38:15 10° SSW visible
21 Nov 4.2 21:38:31 10° SW 21:40:30 15° SSW 21:42:29 10° SSE visible
22 Nov 3.7 20:39:06 10° WSW 20:41:41 22° SSW 20:44:17 10° SSE visible
23 Nov 4.3 21:19:15 10° SSW 21:20:22 11° SSW 21:21:28 10° S visible
24 Nov 4.1 20:19:31 10° SW 20:21:27 15° SSW 20:23:24 10° SSE visible
